loading
|

DELTA 1 DEB, 2154

Orbit data source: Space-Track

DELTA 1 DEB, 2154 is space debris in SSO originally from a launch on Thu, 03 Feb 1966 UTC launched from the Air Force Eastern Test Range (AFETR). Debris objects in space refer to the collection of defunct objects orbiting the Earth. Examples of debris include non-operational satellites, rocket bodies, and fragments generated from explosions, collisions, or faulty payload assembly.

Loading next visibility...
Loading greatness...
DELTA 1 DEB details
Identifier
2154, 1966-008E
Orbit
SSO
Last TLE update17 hours ago
Origin
Flag of USGSFC (US)
ManufacturerUnknown
MissionSpacecraft
Bus & MotorUnknown bus, Unknown motor
MassUnknown
Launch date (UTC)
1966-02-03 (59 years ago)
Launch vehicleUnknown
Launch site
Air Force Eastern Test Range (AFETR)
Object type
Payload
Rocket body
Debris
Shape & HBRUnknown
Radar Cross SectionSmall (<0.1 m²)

Expand to show TLE details & history

TLE from 17 hours ago
0 DELTA 1 DEB
1 02154U 66008E   24278.32439772  .00008003  00000-0  13516-2 0  9991
2 02154  97.8092  46.8752 0049523 135.0198 225.5036 14.68846586 87768
Epoch: 2024-10-04T07:47Z
Definitive object data (Epoch: 2024-10-04T07:47:07.963Z)
Latitude
Longitude-83.40467°
Altitude692.3 km
Speed7.497 km/s
True Right ascension03h 07m 30s
True Declination0° 00' 00"
Sunlit
Object was in full shadow at TLE epoch
Predictive object data (real-time)
Latitude-16.42605°
Longitude94.97681°
Altitude655.655 km
Speed7.537 km/s
Apparent Right ascension12h 01m 52s
Apparent Declination-45° 22' 23"
Sunlit
Object is in daylight
Predictive observer data (real-time)
Local Sidereal Time18:57:39
Azimuth237.328° WSW
Elevation-35.911°
Doppler factor1
Orbital elements
Apogee696.668 km
Perigee626.94 km
Semi-major axis7,039.941 km
Eccentricity0.0049523
Inclination97.8092°
RAAN46.8752°
Arg. of periapsis135.0198°
True anomaly225.10056°
Mean anomaly225.5036°
Eccentric anomaly225.30191°
Mean motion3.67443 °/min
BSTAR0.0013516
Period97.97 mins
No data available
No data available

DELTA 1 DEB Visibility forecast

Observer location: 39.9160978°, -105.1181434

DELTA 1 DEB is not visible in the next 10 days
Span
Click to sort rows by Start time (UTC) header in descending order
Start Az.
Max El. time (UTC)
Max El. Az.
Max El.
End time (UTC)
End Az.